Location: Chervonnoye
(48.6000°N, 34.4000°E)
Time: 15:33:50
(UTC+00:00)

COSMOS 2428 - Pass Details

Date: 23 November 2020
Orbit: 848 x 855 km, 70.9° (Epoch: 28 January)

Event Time Altitude Azimuth Distance (km) Brightness Sun altitude
Rises 15:37:15 0° 228° (SW) 3,416 6.9 -16.6°
Reaches altitude 10° 15:39:49 10° 235° (SW) 2,484 6.2 -17.0°
Maximum altitude 15:45:15 44° 307° (NW) 1,175 3.7 -17.9°
Drops below altitude 10° 15:50:43 10° 19° (NNE) 2,495 4.9 -18.8°
Enters shadow 15:51:01 - 20° (NNE) 2,599 5.0 -18.8°
